Location: Marsån
(66.4167°N, 22.2833°E)
Time: 08:44:59
(UTC+00:00)

Cosmos 158 Rocket - Pass Details

Date: 24 February 2024
Orbit: 696 x 790 km, 74.0° (Epoch: 20 April)

Event Time Altitude Azimuth Distance (km) Brightness Sun altitude
Rises 16:42:27 0° 314° (NW) 3,121 7.8 -8.5°
Reaches altitude 10° 16:44:48 10° 316° (NW) 2,190 7.0 -8.7°
Maximum altitude 16:49:44 72° 41° (NE) 744 3.8 -9.2°
Drops below altitude 10° 16:54:36 10° 127° (SE) 2,164 5.9 -9.7°
Enters shadow 16:55:31 - 128° (SE) 2,525 6.2 -9.8°
